User: anonymous   Login
Location: Unspecified
(0.0000°N, 0.0000°E)
Time: 11:37:42
(UTC+00:00)
Language:

ATEX - Orbit

View from above orbital plane
View from above orbital plane
View from above satellite
View from above satellite

Ground track
Ground track

The orbit data is extracted from the following two-line orbital elements,

1 25615U 98055C   18272.13012439 0.00000080  00000-0  22943-4 0    04
2 25615  84.9871 236.7545 0009000  51.8820 308.1179 14.45026569    04
Epoch (UTC): 29 September 2018 03:07:22
Eccentricity: 0.0009000
inclination: 84.9871°
perigee height: 735 km
apogee height: 748 km
right ascension of ascending node: 236.7545°
argument of perigee: 51.8820°
revolutions per day: 14.45026569
mean anomaly at epoch: 308.1179°
orbit number at epoch: 0

The dashed part of the orbit path shows where the satellite is in the earth's shadow,  

DLR